Retour au catalogue

COSMOS 1275 DEB

ActifPO
NORAD 42182·DEBRIS·🇷🇺 Russia

Lancé Jun 4, 1981 depuis Plesetsk Cosmodrome

Loading…

Prochains Passages (prochaines 24 heures)

TLE

VieillissantSource: Space-Track

Époque: Sep 4, 2026, 18:30 UTC

1 42182U 81053SW  26247.77085826  .00000218  00000-0  24407-3 0  9999
2 42182  82.9495 260.1607 0128843  27.2946  96.9708 13.63203489622080

Suivez COSMOS 1275 DEB en temps réel avec AllMySat

Download on the App Store